NOAA 16 DEB, 41416

Orbit data source: Space-Track

NOAA 16 DEB, 41416 is space debris in SSO originally from a launch on Thu, 21 Sep 2000 UTC launched from the Air Force Western Test Range (AFWTR). Debris objects in space refer to the collection of defunct objects orbiting the Earth. Examples of debris include non-operational satellites, rocket bodies, and fragments generated from explosions, collisions, or faulty payload assembly.

Loading next visibility...
Identifier
41416, 2000-055KV
Orbit
SSO
Country
Flag of USUS
Related business
Manufacturer
Unknown
Mission
Spacecraft
Bus & Motor
Unknown
Mass
Unknown
Launch date (UTC)
2000-09-21 (25 years ago)
Launch vehicle
Unknown
Launch site
Air Force Western Test Range (AFWTR)
Object type
Payload
Rocket body
Debris
Shape & HBR
Unknown shape, 0.1 m
Radar Cross Section
Small (<0.1 m²)

Expand to show TLE details & history
Last TLE update: 2 days ago

TLE from 2 days ago
0 NOAA 16 DEB
1 41416U 00055KV  25292.07637868  .00014028  00000-0  46673-2 0  9994
2 41416  98.7704  37.2459 0028803  98.3977 262.0476 14.37514122500144
Epoch: 2025-10-19T01:49Z
TLE epoch observation values (Epoch: 2025-10-19T01:49:59.117Z)
Latitude
-0.00004°
Longitude
-18.04865°
Altitude
772.566 km
Speed
7.466 km/s
True Right ascension
02h 28m 59s
True Declination
0° 00' 00"
Sunlit
Object was in full shadow at epoch
Visualization orbit readout
Latitude
Unknown
Longitude
Unknown
Altitude
Unknown
Speed
Unknown
Apparent Right ascension
Unknown
Apparent Declination
Unknown
Sunlit
N/A
Visualization observer readout
Local Sidereal Time
21:54:39
Azimuth
Unknown
Elevation
Unknown
Doppler factor
Unknown
Orbital elements
Apogee altitude
784.433 km
Perigee altitude
743.291 km
Semi-major axis
7,141.999 km
Eccentricity
0.00288
Inclination
98.7704°
RAAN
37.2459°
Arg. of periapsis
98.3977°
True anomaly
261.72088°
Mean anomaly
262.0476°
Eccentric anomaly
261.88422°
Mean motion
3.59595 °/min
Orbital period
100.11 mins
BSTAR
0.0046673
Loading maneuver chart data...
Computing Atmospheric mass density...
Loading historical data...
Loading historical data...
Loading historical data...
Loading historical data...
Loading historical data...
Loading historical data...
Loading historical data...

Documentation

Showing up to 5 results
|